Погода в Унде

Россия / Забайкальский край     51°42′39″N   116°55′04″E
темп.,
°C
ветер,
м/с
пор.,
м/с
влажн.,
%
обл.,
%
осадки,
мм/ч
давл.,
гПа
погр.,
м
29 июля, чт
чт2900:00+14св00931 1.5 100311
03:00+13юз009540 1.6 100311
06:00+12з00956 0.2 100310
09:00+17сз118770 0.2 1002322
12:00+21зсз227552 1.9 1001679
15:00+21зсз227134 3.6 10001022
18:00+20ссз227810 2.0 1000600
21:00+16ссз22895 3.8 100111
30 июля, пт
пт3000:00+14ссз11915 0.0 100211
03:00+13с22967 0.0 100319
06:00+12с229814 0.0 100330
09:00+16св248982 0.0 1004542
12:00+18всв368068 0.2 1004914
15:00+20св577057 0.6 10031175
18:00+22всв3763100 0.2 10031410
21:00+16ссв486741 0.2 1005215
31 июля, сб
сб3100:00+14св3861100 0.0 1007198
03:00+11с2375100 0.0 100832
06:00+9с3382100 0.0 101039
09:00+16ссв495972 0.0 1010805
12:00+19св58440 0.0 10101742
15:00+22ссв57402 0.0 10092099
18:00+21ссв47470 0.0 1009804
21:00+14ссв22631 0.0 101112
1 августа, вс
вс100:00+12ссв226826 0.0 101312
03:00+9св11731 0.0 101410
06:00+8св11753 0.0 101510
09:00+14в135813 0.0 1015394
12:00+19ссв13445 0.0 10131418
15:00+21ссв35450 0.0 10111632
18:00+21ссз24534 0.0 10121664
21:00+14с227331 0.0 101311
2 августа, пн
пн200:00+10вюв11790 0.0 101511
03:00+9вюв00780 0.0 101610
06:00+8зюз00770 0.0 101610
09:00+15ююз11600 0.0 1015241
12:00+20зюз22460 0.0 10131014
15:00+22з23390 0.0 10111485
18:00+22ссз23509 0.0 10101037
21:00+16юз11659 0.0 101111